This is the latest recevied weather packets stored in our database for station/object LU9FW-5. If no packets are shown the sender has not sent any weather packets the latest 10 day(s).
| Time | Temp. | Humidity | Pressure | Rain* | Wind** | Luminosity | Snow |
|---|---|---|---|---|---|---|---|
| 1778270397 | 14.44° C | 26% | 1002.9 hPa | 0 mm | - | 1652 W/m² | - |
| 1778270334 | 14.44° C | 25% | 1003 hPa | 0 mm | - | 1652 W/m² | - |
| 1778270263 | 14.44° C | 25% | 1002.9 hPa | 0 mm | - | 1652 W/m² | - |
| 1778270194 | 14.44° C | 25% | 1002.9 hPa | 0 mm | - | 1652 W/m² | - |
| 1778270118 | 14.44° C | 26% | 1002.8 hPa | 0 mm | - | 1652 W/m² | - |
| 1778270046 | 14.44° C | 25% | 1002.8 hPa | 0 mm | - | 1652 W/m² | - |
| 1778269982 | 14.44° C | 26% | 1003.1 hPa | 0 mm | - | 1652 W/m² | - |
| 1778269922 | 14.44° C | 26% | 1003 hPa | 0 mm | - | 1652 W/m² | - |
| 1778269833 | 14.44° C | 26% | 1002.9 hPa | 0 mm | - | 1652 W/m² | - |
| 1778269765 | 15° C | 26% | 1002.8 hPa | 0 mm | - | 1652 W/m² | - |
| 1778269704 | 15° C | 27% | 1002.8 hPa | 0 mm | - | 1652 W/m² | - |
| 1778269551 | 15° C | 26% | 1002.8 hPa | 0 mm | - | 1652 W/m² | - |
| 1778269489 | 15° C | 27% | 1002.9 hPa | 0 mm | - | 1652 W/m² | - |
| 1778269420 | 15° C | 26% | 1002.8 hPa | 0 mm | - | 1652 W/m² | - |
| 1778269375 | 14.44° C | 25% | 1003 hPa | 0 mm | - | 1652 W/m² | - |
| 1778269270 | 14.44° C | 27% | 1002.8 hPa | 0 mm | - | 1652 W/m² | - |
| 1778269201 | 14.44° C | 25% | 1003 hPa | 0 mm | - | 1652 W/m² | - |
| 1778269132 | 14.44° C | 25% | 1002.9 hPa | 0 mm | - | 1652 W/m² | - |
| 1778269063 | 14.44° C | 25% | 1003 hPa | 0 mm | - | 1652 W/m² | - |
| 1778268993 | 14.44° C | 29% | 1002.9 hPa | 0 mm | - | 1652 W/m² | - |
| 1778268923 | 14.44° C | 28% | 1002.8 hPa | 0 mm | - | 1652 W/m² | - |
| 1778268853 | 13.89° C | 30% | 1003 hPa | 0 mm | - | 1652 W/m² | - |
| 1778268782 | 13.89° C | 28% | 1002.7 hPa | 0 mm | - | 1652 W/m² | - |
| 1778268703 | 13.89° C | 29% | 1002.7 hPa | 0 mm | - | 1652 W/m² | - |
| 1778268639 | 13.89° C | 29% | 1002.8 hPa | 0 mm | - | 1652 W/m² | - |
* Rain latest hour (hover to see other rain measurements)
** Current wind speed in m/s (hover to see current wind gust speed)